Location: ??
(35.5052°N, 139.7262°E)
Time: 01:03:21
(UTC+00:00)

USA 229 DEB - Visible Passes

Search period start: 24 October 2021 00:00
Search period end: 03 November 2021 00:00
Orbit: 953 x 1259 km, 63.4° (Epoch: 22 October)

Date Brightness Start Highest point End Pass type
(mag) Time Alt. Az. Time Alt. Az. Time Alt. Az.
24 Oct 3.7 08:26:23 10° S 08:32:25 52° ESE 08:38:47 10° NE visible
24 Oct 5.3 10:18:14 10° WSW 10:23:37 28° NW 10:29:18 10° NNE visible
24 Oct 4.1 18:00:23 68° ESE 18:00:23 68° ESE 18:07:19 10° SE visible
24 Oct 5.0 19:47:57 19° W 19:49:49 21° WSW 19:55:17 10° SSW visible
25 Oct 4.6 09:32:31 10° WSW 09:38:29 43° NW 09:44:51 10° NNE visible
25 Oct 5.5 17:18:37 27° ESE 17:18:37 27° ESE 17:22:02 10° SE visible
25 Oct 4.6 19:06:10 34° SW 19:06:10 34° SW 19:12:12 10° S visible
26 Oct 3.8 08:47:17 10° SW 08:53:33 70° WNW 09:00:13 10° NNE visible
26 Oct 6.0 10:42:17 10° WNW 10:45:48 15° NW 10:49:26 10° N visible
26 Oct 5.0 18:24:21 31° S 18:24:21 31° S 18:28:17 10° S visible
27 Oct 5.6 09:55:31 10° W 10:00:22 22° NW 10:05:27 10° N visible
27 Oct 5.9 17:42:25 16° SSE 17:42:25 16° SSE 17:43:49 10° SSE visible
27 Oct 5.8 19:29:58 10° SW 19:29:58 10° SW 19:30:00 10° SW visible
28 Oct 5.1 09:09:27 10° WSW 09:15:07 33° NW 09:21:07 10° NNE visible
29 Oct 4.4 08:23:56 10° SW 08:30:04 52° NW 08:36:36 10° NNE visible
29 Oct 6.1 10:20:30 10° NW 10:22:44 12° NNW 10:24:59 10° N visible
30 Oct 5.9 09:33:03 10° WNW 09:37:10 17° NW 09:41:28 10° N visible
31 Oct 5.4 08:46:35 10° W 08:51:48 26° NW 08:57:19 10° N visible
01 Nov 4.8 08:00:45 10° WSW 08:06:39 40° NW 08:12:54 10° NNE visible
02 Nov 6.0 09:10:54 10° WNW 09:14:03 14° NNW 09:17:18 10° N visible
